Starlink 35526

operational
NORAD ID: 65931 Int'l Des: 2025-225 Owner: SPXS Country: US Constellation: starlink
LEOCIRCULAR

关于 Starlink 35526

正在加载描述...

实时位置

正在加载3D地球...

即将过境

高度历史

Altitude vs Time

uPlot chart will show altitude changes over time

两行轨道根数

1 65931U 25225X 26061.07917252 .00031804 00000-0 10806-2 0 9991
2 65931 53.1569 200.9684 0001262 59.6283 300.4843 15.30222581 23240
Epoch: Mar 2, 2026 • Age: 25 hours

当前状态

高度 480.7 km
速度 7.63 km/s
星下点 -20.67°S, 0.21°W
发射日期 Oct 8, 2025
运行时间 0.3 years
类型 internet

技术详情

分类 Payload
质量 575.00 kg
干质量 530.00 kg
总质量 575.00 kg
长度 0.30 m
直径 4.10 m
跨度 29.00 m
形状 Box + pan
制造商 SPXS
平台类型 Starlink V2MO
阶段状态 In Orbit
所有者/国家 SPXS/US

大型星座

Loading constellations...